Location: Boiro
(42.6475°N, 8.8834°W)
Time: 18:05:11
(UTC+01:00)

Transit 2A - Pass Details

Date: 07 December 2021
Orbit: 591 x 967 km, 66.7° (Epoch: 20 January)

Event Time Altitude Azimuth Distance (km) Brightness Sun altitude
Rises 01:17:04 0° 220° (SW) 3,288 - -69.9°
Reaches altitude 10° 01:19:25 10° 224° (SW) 2,417 - -69.9°
Maximum altitude 01:24:59 62° 305° (NW) 988 - -70.0°
Drops below altitude 10° 01:31:08 10° 26° (NNE) 2,649 - -69.9°
Sets 01:33:49 0° 29° (NNE) 3,627 - -69.9°
